Regional Weather Roundup
Issued by NWS

Home | Current Version | Previous Version | Text Only | Print | Product List | Glossary On
Versions: 1 2 3 4 5 6 7 8 9 10 11 12 13 14 15 16 17 18 19 20 21 22 23 24 25 26 27 28 29 30 31 32 33 34 35 36 37 38 39 40 41 42 43 44 45 46 47 48 49 50
000
ASUS45 KABQ 020310
RWRNM
WEATHER ROUNDUP FOR NEW MEXICO
NATIONAL WEATHER SERVICE ALBUQUERQUE NM
900 PM MDT WED APR 01 2015

NOTE: "FAIR" MEANS FEW OR NO CLOUDS BELOW 12,000 FEET AGL WITH NO
       SIGNIFICANT WEATHER OR OBSTRUCTIONS TO VISION.

      THIS PRODUCT IS RELEASED AS TWO VERSIONS.  ONE VERSION NEAR
      THE TOP OF THE HOUR CONTAINING PRELIMINARY DATA FROM ALBUQUERQUE
      AND OTHER STATIONS.  A FINAL VERSION WITH ADDITIONAL DATA IS
      ISSUED ABOUT 10 MINUTES AFTER THE HOUR.

NMZ501-503-504-510>518-020400-
NORTHWEST PLATEAU/NORTHCENTRAL MOUNTAINS

CITY           SKY/WX    TMP DP  RH WIND       PRES   REMARKS
FARMINGTON     CLEAR     57  15  19 NW3       29.86R
LOS ALAMOS     MOCLDY    56  19  23 CALM      29.99R
SANTA FE       MOCLDY    56  19  23 NE6       29.94R
TAOS           PTCLDY    46  18  31 W9        29.96R
ANGEL FIRE     CLOUDY    44  23  44 CALM      30.03R

$$
NMZ402-403-502-505>509-020400-
WESTCENTRAL MOUNTAINS/SOUTHWEST MOUNTAINS

CITY           SKY/WX    TMP DP  RH WIND       PRES   REMARKS
GALLUP         PTCLDY    58  14  17 SW12      29.96R
GRANTS         CLEAR     51  20  29 CALM      30.00R
SILVER CITY    CLEAR     64  23  20 W13       30.01R

$$
NMZ407-409-411-412-020400-
SOUTHERN DESERTS

CITY           SKY/WX    TMP DP  RH WIND       PRES   REMARKS
LORDSBURG      FAIR      66  23  19 W9        29.94R
DEMING         CLEAR     67  29  24 W8        29.93R
LAS CRUCES     PTCLDY    66  28  24 W12       29.95R
HOLLOMAN AFB   PTCLDY    71  28  20 SW8       29.88R
ALAMOGORDO     PTCLDY    72  27  18 SW12      29.91R
T OR C         CLEAR     68  26  20 W10       29.92R

$$
NMZ519>523-020400-
CENTRAL VALLEYS/CENTRAL HIGHLANDS

CITY           SKY/WX    TMP DP  RH WIND       PRES   REMARKS
ALBUQUERQUE    PTCLDY    66  22  18 W8        29.91R
DOUBLE EAGLE   CLEAR     59  21  23 W9G17     29.94R
MORIARTY ARPT  FAIR      57  19  22 W8        29.96R
CLINES CORNERS PTCLDY    50  20  30 W13       29.97R
BELEN          FAIR      63  17  16 W10       29.91R
SOCORRO        FAIR      70  24  17 W16       29.90R

$$
NMZ524>526-539-540-020400-
SOUTHCENTRAL MOUNTAINS

CITY           SKY/WX    TMP DP  RH WIND       PRES   REMARKS
RUIDOSO        PTCLDY    57  23  26 SW13      30.02R

$$
NMZ527>531-020400-
NORTHEAST HIGHLANDS/NORTHEAST PLAINS

CITY           SKY/WX    TMP DP  RH WIND       PRES   REMARKS
LAS VEGAS      PTCLDY    55  19  24 SW5       29.94R
RATON          CLEAR     52  18  26 SW9       29.86R
CLAYTON        PTCLDY    64  20  18 W15       29.77R

$$
NMZ532>537-020400-
EASTCENTRAL PLAINS

CITY           SKY/WX    TMP DP  RH WIND       PRES   REMARKS
TUCUMCARI      CLEAR     64  23  21 W12       29.77R
CANNON AFB     CLEAR     68  24  19 W12       29.83R
CLOVIS AIRPORT CLEAR     57  28  33 SW10      29.82R

$$
NMZ028-029-538-020400-
SOUTHEAST PLAINS

CITY           SKY/WX    TMP DP  RH WIND       PRES   REMARKS
ROSWELL        CLEAR     64  30  27 W9        29.81R
ARTESIA        CLEAR     70  32  24 SW15      29.84R
CARLSBAD       CLEAR     65  33  30 SW12      29.83R
HOBBS          CLEAR     63  32  31 SW8       29.85R


$$



USA.gov is the U.S. government's official web portal to all federal, state and local government web resources and services.